User: anonymous
Location: Mentone
(34.5413°N, 85.5351°W)
Time: 08:50:07
(UTC-05:00)
Language:

Centaur AC-72 - Orbit

View from above orbital plane
View from above orbital plane
View from above satellite
View from above satellite

Ground track
Ground track

The orbit data is extracted from the following two-line orbital elements,

1 21907U 92013B   14272.29890271 -.00000131  00000-0  00000+0 0  9375
2 21907 019.0711 226.9436 6951781 293.6733 106.6387 02.25608231185882
Epoch (UTC): 29 September 2014 07:10:25
Eccentricity: 0.6951781
inclination: 19.0711°
perigee height: 1107 km
apogee height: 35249 km
right ascension of ascending node: 226.9436°
argument of perigee: 293.6733°
revolutions per day: 2.25608231
mean anomaly at epoch: 106.6387°
orbit number at epoch: 18588

The dashed part of the orbit path shows where the satellite is in the earth's shadow,  

DLR